User: anonymous   Login
Location: Unspecified
(0.0000°N, 0.0000°E)
Time: 19:01:32
(UTC+00:00)
Language:

GOES 5 - Orbit

View from above orbital plane
View from above orbital plane
View from above satellite
View from above satellite

Ground track
Ground track

The orbit data is extracted from the following two-line orbital elements,

1 12472U 81049A   19341.44080014 -.00000270  00000-0  00000+0 0  9996
2 12472  13.3909 335.5679 0004358 315.3615 231.9067  1.00304732 99067
Epoch (UTC): 07 December 2019 10:34:45
Eccentricity: 0.0004358
inclination: 13.3909°
perigee height: 35758 km
apogee height: 35795 km
right ascension of ascending node: 335.5679°
argument of perigee: 315.3615°
revolutions per day: 1.00304732
mean anomaly at epoch: 231.9067°
orbit number at epoch: 9906

The dashed part of the orbit path shows where the satellite is in the earth's shadow,  

DLR